Location: Sungai Bunut
(2.6333°N, 113.7333°E)
Time: 01:21:00
(UTC+00:00)

S-56A Canister/Altair - Pass Details

Date: 09 December 2023
Orbit: 640 x 2488 km, 38.9° (Epoch: 24 February)

Event Time Altitude Azimuth Distance (km) Brightness Sun altitude
Rises 13:55:10 0° 254° (WSW) 4,782 12.2 -50.1°
Reaches altitude 10° 14:01:05 10° 227° (SW) 4,242 11.7 -51.3°
Maximum altitude 14:05:25 13° 205° (SSW) 4,309 11.6 -52.2°
Drops below altitude 10° 14:10:13 10° 183° (S) 4,775 11.8 -53.2°
Sets 14:18:14 0° 158° (SSE) 6,069 12.2 -54.8°
